Huntington, WV

12:52 PM EST on December 07, 2016 (GMT -0500)
Tri-State / Ferguson

Weather History for KHTS - January, 2008

Change the Weather History Date:

Tuesday, January 1, 2008

  Actual Average Record
Temperature  
Mean Temperature 35 °F 34 °F  
Max Temperature 50 °F 42 °F 74 °F (1952)
Min Temperature 20 °F 26 °F -1 °F (1899)
Degree Days  
Heating Degree Days 30 31  
Month to date heating degree days 30 31  
Since 1 July heating degree days 1535 1786  
Cooling Degree Days 0 0  
Month to date cooling degree days 0 0  
Year to date cooling degree days 0 0  
Moisture  
Dew Point 20 °F    
Average Humidity 63    
Maximum Humidity 79    
Minimum Humidity 47    
Precipitation  
Precipitation T in 0.10 in 1.53 in (1948)
Month to date precipitation T 0.10  
Year to date precipitation T 0.10  
Snow  
Snow 0.00 in - - ()
Month to date snowfall  
Since 1 September snowfall 1.4  
Snow Depth 0.00 in    
Sea Level Pressure  
Sea Level Pressure 30.09 in    
Wind  
Wind Speed 14 mph (West)    
Max Wind Speed 25 mph    
Max Gust Speed 37 mph    
Visibility 10 miles    
Events Rain , Snow    
T = Trace of Precipitation, MM = Missing Value Source: NWS Daily Summary

Daily Weather History Graph

Daily Weather History Graph

Search for Another Location

Airport or City:

Trip Planner

Search our weather history database for the weather conditions in past years. The results will help you decide how hot, cold, wet, or windy it might be!

Date:

Astronomy

Jan. 01, 2008 Rise Set
Actual Time 7:47 AM EST 5:20 PM EST
Civil Twilight 7:17 AM EST 5:49 PM EST
Nautical Twilight 6:44 AM EST 6:22 PM EST
Astronomical Twilight 6:12 AM EST 6:54 PM EST
Moon 1:37 AM EST (1/1) 12:31 PM EST (1/1)
Length of Visible Light 10h 31m
Length of Day
9h 32m
Last Quarter, 37% of the Moon is Illuminated
Jan 1
Last Quarter
Jan 8
New
Jan 15
First Quarter
Jan 22
Full
Jan 30
Last Quarter

Hourly Weather History & Observations

Time (EST) Temp. Windchill Dew Point Humidity Pressure Visibility Wind Dir Wind Speed Gust Speed Precip Events Conditions
12:51 AM 50.0 °F - 28.0 °F 43% 29.81 in 10.0 mi WSW 17.3 mph 39.1 mph 0.00 in Rain Light Rain
1:51 AM 39.2 °F 29.8 °F 33.8 °F 81% 29.88 in 10.0 mi WSW 18.4 mph 34.5 mph 0.00 in   Overcast
2:51 AM 39.2 °F 30.8 °F 33.8 °F 81% 29.90 in 10.0 mi WSW 15.0 mph 34.5 mph N/A   Overcast
3:51 AM 37.9 °F 27.9 °F 28.9 °F 70% 29.94 in 10.0 mi West 19.6 mph 29.9 mph N/A   Unknown
4:02 AM 37.4 °F 26.4 °F 26.6 °F 65% 29.94 in 10.0 mi West 23.0 mph 36.8 mph N/A   Overcast
4:15 AM 35.6 °F 24.5 °F 24.8 °F 65% 29.95 in 10.0 mi West 20.7 mph 31.1 mph N/A   Mostly Cloudy
4:51 AM 36.0 °F 27.5 °F 24.1 °F 62% 29.98 in 10.0 mi WSW 12.7 mph 25.3 mph N/A   Overcast
5:51 AM 35.1 °F 25.2 °F 23.0 °F 61% 30.01 in 10.0 mi WSW 16.1 mph 24.2 mph N/A   Overcast
6:51 AM 35.1 °F 26.4 °F 23.0 °F 61% 30.03 in 10.0 mi WSW 12.7 mph 21.9 mph N/A   Overcast
7:51 AM 34.0 °F 25.5 °F 23.0 °F 64% 30.05 in 10.0 mi WSW 11.5 mph 20.7 mph N/A   Overcast
8:51 AM 34.0 °F 24.2 °F 21.9 °F 61% 30.07 in 10.0 mi WSW 15.0 mph 24.2 mph N/A   Overcast
9:51 AM 34.0 °F 22.4 °F 21.0 °F 59% 30.08 in 10.0 mi West 20.7 mph 27.6 mph N/A   Overcast
10:51 AM 33.1 °F 23.9 °F 21.0 °F 61% 30.09 in 10.0 mi West 12.7 mph 24.2 mph N/A   Overcast
11:51 AM 33.1 °F 24.4 °F 21.9 °F 64% 30.09 in 10.0 mi WSW 11.5 mph 20.7 mph N/A   Overcast
12:12 PM 33.8 °F 24.8 °F 21.2 °F 60% 30.08 in 10.0 mi West 12.7 mph 21.9 mph N/A   Overcast
12:51 PM 32.0 °F 22.1 °F 21.9 °F 66% 30.09 in 10.0 mi WSW 13.8 mph 19.6 mph 0.00 in   Overcast
1:30 PM 30.2 °F 19.8 °F 19.4 °F 64% 30.08 in 10.0 mi WSW 13.8 mph 21.9 mph 0.00 in   Overcast
1:51 PM 30.9 °F 18.7 °F 19.9 °F 64% 30.09 in 10.0 mi West 19.6 mph 27.6 mph 0.00 in   Overcast
2:44 PM 30.2 °F 20.2 °F 19.4 °F 64% 30.11 in 9.0 mi West 12.7 mph 31.1 mph N/A   Overcast
2:51 PM 30.0 °F 20.0 °F 19.0 °F 64% 30.12 in 8.0 mi West 12.7 mph 24.2 mph N/A   Overcast
2:59 PM 30.2 °F 20.8 °F 19.4 °F 64% 30.11 in 9.0 mi West 11.5 mph 24.2 mph N/A   Overcast
3:51 PM 30.0 °F 22.4 °F 18.0 °F 61% 30.14 in 10.0 mi West 8.1 mph 20.7 mph N/A   Overcast
4:12 PM 28.4 °F 19.1 °F 19.4 °F 69% 30.14 in 8.0 mi West 10.4 mph 21.9 mph 0.00 in Snow Light Snow
4:20 PM 28.4 °F 19.7 °F 17.6 °F 64% 30.14 in 9.0 mi West 9.2 mph 19.6 mph 0.00 in   Overcast
4:51 PM 28.0 °F 17.5 °F 18.0 °F 66% 30.18 in 7.0 mi West 12.7 mph 19.6 mph 0.00 in Snow Light Snow
5:51 PM 26.1 °F 14.0 °F 16.0 °F 66% 30.21 in 9.0 mi West 15.0 mph 23.0 mph 0.00 in   Overcast
6:20 PM 24.8 °F 14.6 °F 12.2 °F 59% 30.20 in 10.0 mi WNW 10.4 mph 25.3 mph 0.00 in   Overcast
6:51 PM 25.0 °F 14.2 °F 12.9 °F 60% 30.22 in 10.0 mi West 11.5 mph 23.0 mph 0.00 in   Overcast
7:51 PM 25.0 °F 14.2 °F 14.0 °F 63% 30.22 in 10.0 mi West 11.5 mph 20.7 mph N/A   Overcast
8:51 PM 24.1 °F 13.1 °F 12.9 °F 62% 30.23 in 10.0 mi West 11.5 mph 19.6 mph N/A   Mostly Cloudy
9:51 PM 23.0 °F 10.6 °F 9.0 °F 55% 30.24 in 10.0 mi West 13.8 mph 24.2 mph 0.00 in   Mostly Cloudy
10:51 PM 21.0 °F 8.6 °F 5.0 °F 50% 30.25 in 10.0 mi West 12.7 mph 21.9 mph N/A   Clear
11:51 PM 19.9 °F 7.3 °F 10.0 °F 65% 30.25 in 4.0 mi West 12.7 mph 19.6 mph 0.00 in Snow Light Snow